Location: Holbach
(51.5399°N, 10.6036°E)
Time: 00:12:00
(UTC+00:00)

Cosmos 1674 - Pass Details

Date: 18 September 2020
Orbit: 494 x 517 km, 82.5° (Epoch: 23 October)

Event Time Altitude Azimuth Distance (km) Brightness Sun altitude
Rises 19:01:45 0° 352° (N) 2,655 6.8 -15.5°
Reaches altitude 10° 19:03:56 10° 356° (N) 1,763 5.8 -15.8°
Maximum altitude 19:07:46 59° 77° (ENE) 605 2.7 -16.4°
Enters shadow 19:09:20 32° 144° (SE) 907 3.4 -16.6°
